www.pogodaiklimat.ru

Погода и климат >> Архив погоды >> Мексика >> Mexico City


АРХИВ ПОГОДЫ в Mexico City

Время (UTC), дата Ветер
(напр.,м/с)
 
Видим.   Явления Облачность Т
(С)
Тd
(С)
f
(%)
Тe
(С)
Тes
(С)
Комфортность P
(гПа)
Po
(гПа)
Тmin
(С)
Tmax
(С)
R
(мм)
R24
(мм)
S
(см)
12 15.11 СВ 1 1000 м мгла {туман} 4/0
[Cs]
+10.6 +8.9 89 +10 +10 по сезону 1014.9 776.2 +9.5 +22.4
15 15.11 В 1 1000 м мгла ясно +13.2 +10.3 83 +13 +18 по сезону 1017.6 777.4
18 15.11 С 2 1000 м мгла 1/0 2000 м
[As trans]
+19.4 +12.1 63 +21 +33 комфорт 1015.5 776.6 +9.5 +20.0
21 15.11 СВ 3 2000 м мгла ясно +22.8 +10.9 47 +25 +32 комфорт 1009.8 774.1
00 16.11 СЗ 2 12 км дым 1/0 2000 м
[As op]
+20.2 +8.3 46 +22 +22 комфорт 1008.1 774.6 +9.5 +23.9
03 16.11 З 3 10 км дым ясно +16.4 +6.9 53 +16 +16 по сезону 1010.1 777.2
06 16.11 З 3 18 км дым ясно +12.1 +7.0 71 +11 +11 по сезону 1011.6 777.7 +9.5 +23.9
09 16.11 штиль 0 15 км дым ясно +10.7 +6.7 76 +10 +10 по сезону 1013.7 777.4
12 16.11 штиль 0 12 км дым ясно +9.0 +5.4 78 +8 +8 по сезону 1016.9 777.7 +8.5 +23.9
15 16.11 СВ 2 2000 м мгла ясно +12.6 +7.9 73 +12 +15 по сезону 1020.0 778.8
18 16.11 С 2 3000 м мгла ясно +19.0 +12.8 67 +21 +33 комфорт 1017.4 777.5 +7.8 +19.7
21 16.11 СЗ 2 2000 м мгла ясно +23.2 +12.5 51 +26 +34 жарко 1011.7 775.1
00 17.11 СЗ 2 8000 м дым ясно +21.0 +10.1 50 +23 +23 комфорт 1008.8 775.1 +7.8 +24.5
03 17.11 З 4 8000 м дым ясно +16.0 +9.6 66 +15 +15 по сезону 1010.9 777.8
06 17.11 СЗ 1 10 км дым ясно +13.0 +11.4 90 +13 +13 по сезону 1012.3 778.3 +7.8 +24.5
09 17.11 З 1 1000 м дым ясно +11.2 +9.9 92 +11 +11 по сезону 1013.7 777.6
12 17.11 З 1 1000 м дым {туман} 1/0
[Ci]
+9.8 +7.8 87 +9 +9 по сезону 1016.5 777.6 +8.5 +24.5
15 17.11 Ю 1 2000 м мгла 3/3 750 м
[Cu hum]
+11.8 +9.5 86 +12 +15 по сезону 1019.8 778.8
18 17.11 СЗ 2 2000 м мгла 4/0
[As trans]
+19.4 +12.5 64 +21 +31 комфорт 1017.4 777.6 +8.6 +20.0
21 17.11 СЗ 3 2000 м мгла 3/0 2000 м
[As op]
+23.2 +14.2 57 +27 +32 душно 1011.3 775.0
00 18.11 З 2 6000 м дым ясно +21.3 +11.1 52 +23 +23 комфорт 1007.8 774.6 +8.6 +24.9
03 18.11 З 3 6000 м дым ясно +16.5 +8.0 57 +16 +16 по сезону 1009.3 776.9
06 18.11 штиль 0 10 км дым ясно +13.8 +8.9 72 +14 +14 по сезону 1009.8 776.9 +8.6 +24.9
12 18.11 штиль 0 6000 м дым ясно +9.8 +5.4 74 +9 +9 по сезону 1013.8 775.9 +8.9 +24.9
15 18.11 штиль 0 3000 м мгла ясно +13.5 +6.9 64 +13 +18 по сезону 1016.7 777.0
18 18.11 СЗ 2 4000 м мгла ясно +21.4 +0.7 25 +21 +34 комфорт 1014.5 776.1 +8.7 +22.0
21 18.11 ЮВ 2 6000 м мгла ясно +24.5 +3.1 25 +24 +32 комфорт 1008.7 773.6
00 19.11 СЗ 5 15 км дым 1/0 2000 м
[As op]
+21.9 +5.4 34 +22 +22 комфорт 1005.9 773.8 +8.7 +25.4
06 19.11 З 4 12 км ясно +14.0 +7.3 64 +13 +13 по сезону 1009.9 777.3 +8.7 +25.4
09 19.11 СЗ 3 12 км ясно +12.2 +6.7 69 +11 +11 по сезону 1011.7 776.9
12 19.11 З 2 10 км мгла 8/0 2000 м
[Ac cuf]
+10.2 +7.8 85 +9 +9 по сезону 1015.7 777.7 +9.6 +25.4
06 20.11 СЗ 2 16 км дым ясно +11.1 +9.5 90 +10 +10 по сезону 1013.1 777.2 +9.5 +20.8
09 20.11 штиль 0 8000 м дым ясно +10.2 +11 +11 по сезону 1014.0 776.3
12 20.11 СЗ 1 3000 м дымка 10/10 660 м
[St]
+8.8 +6.0 83 +8 +8 по сезону 1016.5 776.4 +8.1 +20.8
15 20.11 штиль 0 1000 м дымка 3/3 660 м
[St]
+12.0 +9.4 84 +11 +15 прохладно 1019.3 777.8
18 20.11 В 2 2000 м мгла ясно +19.6 +10.1 54 +21 +34 комфорт 1016.0 776.3 +8.1 +20.0
21 20.11 С 4 4000 м дым 6/6 800 м
[Cu hum]
+21.4 +7.7 41 +22 +24 комфорт 1010.6 774.0
00 21.11 С 4 8000 м дым 4/4 600 м
[Cu hum]
+19.0 +11.7 63 +20 +20 тепло 1007.8 773.8 +8.1 +22.9
03 21.11 З 3 6000 м дым 5/0 2000 м
[Ac As]
+15.6 +10.4 71 +15 +15 по сезону 1008.4 775.4
06 21.11 ЮЗ 2 10 км дым ясно +13.8 +11.0 83 +13 +13 по сезону 1009.8 775.9 +8.1 +22.9
09 21.11 Ю 1 8000 м дым 3/0
[Cc]
+11.6 +9.3 86 +11 +11 по сезону 1010.2 774.7
12 21.11 СЗ 1 2000 м дым 3/0
[Cc]
+9.8 +7.8 87 +9 +9 по сезону 1012.2 774.5 +8.6 +22.9
15 21.11 ЮВ 2 1000 м мгла ясно +14.0 +10.2 78 +14 +17 по сезону 1014.7 775.4
18 21.11 В 2 2000 м мгла 1/1 750 м
[Cu hum]
+21.0 +14.0 64 +25 +36 комфорт 1012.9 774.8 +8.6 +21.5
21 21.11 СВ 3 2000 м мгла 4/4 750 м
[Cu hum]
+22.8 +13.1 54 +26 +30 жарко 1007.5 772.4
00 22.11 В 2 6000 м дым 8/6 600 м
[Sc diur, vesp As op]
+21.0 +10.5 51 +24 +24 комфорт 1005.1 772.5 +8.6 +24.2
03 22.11 З 2 6000 м дым 9/4 800 м
[Cu hum As op]
+18.0 +13.2 74 +19 +19 тепло 1006.4 774.7
06 22.11 Ю 1 6000 м дым ясно +14.8 +11.9 83 +15 +15 тепло 1006.8 774.6 +8.6 +24.2

 

Местоположение метеостанции Mexico City (Мексика): широта 19.40 долгота -99.18 высота над уровнем моря 2303 м.

В архиве по умолчанию представлена погода в Mexico City за последнюю неделю. Архивные данные за месяц целиком и за предыдущие месяцы, начиная с января 2011 года, Вы можете получить, выбрав интересующий диапазон дат из раскрывающегося списка и нажав кнопку "Ввод!".

Внимание! Время в таблицах - всемирное. Для получения местного времени необходимо прибавить поправку, которая в Mexico City равна -6 ч.

Смотрите также архив погоды в соседних городах и на ближайших метеорологических станциях:

Погода в Institute of Geography (Мексика) (9 км)
Погода в Toluca (Мексика) (54 км)
Погода в Cuernavaca (Мексика) (58 км)
Погода в Zacatepec (Мексика) (78 км)
Погода в Pachuca (Мексика) (93 км)
Погода в Tlaxcala (Мексика) (98 км)
Погода в Tlaxcala Airport (Мексика) (99 км)
Погода в Tulancingo (Мексика) (114 км)
Погода в Puebla (Мексика) (114 км)
Погода в Queretaro (Мексика) (183 км)

Пояснения к столбцам:

Ветер - указаны скорость ветра в м/с - средняя за 10 мин, порывы в срок и между сроками (в фигурных скобках) и направление, откуда дует ветер: С - северный, СВ - северо-восточный, В - восточный, ЮВ - юго-восточный, Ю - южный, ЮЗ - юго-западный, З - западный, СЗ - северо-западный.
Видимость - горизонтальная дальность видимости в метрах или километрах. При видимости от 1 до 10 км при отсутствии осадков обычно наблюдается дымка, при ухудшении видимости до 1 км и менее - туман. В сухую погоду видимость может ухудшаться дымом, пылью или мглою.
Явления - указаны атмосферные явления, наблюдавшиеся в срок или в последний час перед сроком; фигурными скобками обозначены явления, наблюдавшиеся между сроками (за 1-3 часа до срока); квадратными скобками обозначены град или гололедные отложения с указанием их диаметра в мм.
Облачность - указаны через наклонную черту общая и нижняя облачность в баллах и высота нижней границы облаков в метрах; квадратными скобками обозначены формы облаков: Ci - перистые, Cs - перисто-слоистые, Cc - перисто-кучевые, Ac - высококучевые, As - высокослоистые, Sc - слоисто-кучевые, Ns - слоисто-дождевые, Cu - кучевые, Cb - кучево-дождевые. Подробнее классификацию облаков см. в Атласе облаков (PDF).
T - Температура воздуха - температура, измеренная на высоте 2 м над землей.
Td - Температура точки росы - температура, при понижении до которой содержащийся в воздухе водяной пар достигнет насыщения.
f - Относительная влажность воздуха - влажноcть воздуха, измеренная на высоте 2 м над землей.
Te - Эффективная температура - температура, которую ощущает одетый по сезону человек в тени. Характеристика душности погоды. При расчете учитывается влияние влажности воздуха и скорости ветра на теплоощущения человека.
Tes - Эффективная температура на солнце - температура, которую ощущает человек, с поправкой на солнечный нагрев. Характеристика знойности погоды. Зависит от высоты солнца над горизонтом, облачности и скорости ветра. Ночью, в пасмурную погоду, а также при ветре 12 м/с и более поправка равна нулю.
P - Атмосферное давление - приведенное к уровню моря атмосферное давление.
Po - Атмосферное давление - измеренное на уровне метеостанции атмосферное давление.
Tmin - Минимальная температура - минимум температуры воздуха на высоте 2 м над землей.
Tmax - Максимальная температура - максимум температуры воздуха на высоте 2 м над землей.
R - Количество осадков - Количество выпавших осадков за период времени, мм. При наведении курсора мыши на число - период времени, за который выпало указанное количество осадков.
R24 - Количество осадков - Количество выпавших осадков за 24 часа, мм.
S - Снежный покров - Высота снежного покрова, см. При наведении курсора мыши на число - состояние снежного покрова и степень покрытия местности в баллах.